Tracking 30142 objects as of 21-Jan-2025
HD Live streaming from Space Station
objects crossing your sky now

BREEZE-M DEB (TANK)

Track BREEZE-M DEB (TANK) now!


NORAD ID: 28477
Int'l Code: 2004-041C
Perigee: 1,478.5 km
Apogee: 35,153.6 km
Inclination: 47.9 °
Period: 643.4 minutes
Semi major axis: 24687 km
RCS: 7.1658 m2 (large)
Launch date: October 14, 2004
Source: Commonwealth of Independent States (former USSR) (CIS)
Launch site: TYURATAM MISSILE AND SPACE COMPLEX (TTMTR)

Note: This is SATELLITE DEBRIS
Your satellite tracking list
Your tracking list is empty




NASA's NSSDC Master Catalog

Two Line Element Set (TLE):
1 28477U 04041C   25021.27205157  .00000037  00000-0  00000-0 0  9996
2 28477  47.9067 230.9383 6820382   7.2088 359.0889  2.23819939165577
Source of the keplerian elements: AFSPC